OK1FET-5 Weather Reports


Display with metric or nautical units.
time (UTC)temp
F
wind
direction
speed
MPH
gust
MPH
rain 1hr
in
rain 24hr
in
rain mn
in
humidity
%
barometer
mb
20260505125017 84 102 4.0 6.0 0.00 0.00 0.00 33 1006.3
20260505123528 83 159 3.0 5.0 0.00 0.00 0.00 35 1006.6
20260505123032 83 179 6.0 8.0 0.00 0.00 0.00 35 1006.7
20260505122536 84 167 5.0 8.0 0.00 0.00 0.00 32 1006.7
20260505122040 85 142 5.0 8.0 0.00 0.00 0.00 36 1006.8
20260505121543 86 117 3.0 8.0 0.00 0.00 0.00 32 1006.8
20260505121047 86 139 4.0 6.0 0.00 0.00 0.00 36 1006.9
20260505120551 86 92 3.0 5.0 0.00 0.00 0.00 36 1006.9
20260505120054 87 132 2.0 4.0 0.00 0.00 0.00 36 1007.0
20260505115558 86 89 4.0 7.0 0.00 0.00 0.00 37 1007.1
20260505115102 87 116 3.0 6.0 0.00 0.00 0.00 36 1007.1
20260505114605 88 93 3.0 5.0 0.00 0.00 0.00 35 1007.0
20260505114109 89 223 3.0 6.0 0.00 0.00 0.00 33 1007.0
20260505113612 89 28 2.0 4.0 0.00 0.00 0.00 35 1007.2
20260505113116 88 332 2.0 4.0 0.00 0.00 0.00 36 1007.2
20260505112620 86 63 3.0 4.0 0.00 0.00 0.00 37 1007.3
20260505112124 85 126 3.0 5.0 0.00 0.00 0.00 37 1007.3
20260505111627 87 197 3.0 6.0 0.00 0.00 0.00 34 1007.4
20260505111131 88 59 3.0 5.0 0.00 0.00 0.00 36 1007.4
20260505110635 87 28 2.0 4.0 0.00 0.00 0.00 36 1007.4
20260505110139 85 152 3.0 6.0 0.00 0.00 0.00 37 1007.5
20260505102210 85 280 1.0 3.0 0.00 0.00 0.00 37 1008.0
20260505101715 82 135 3.0 5.0 0.00 0.00 0.00 38 1008.1
20260505101219 80 164 3.0 5.0 0.00 0.00 0.00 38 1008.0
20260505100723 78 152 3.0 4.0 0.00 0.00 0.00 39 1008.1
20260505100227 78 80 2.0 5.0 0.00 0.00 0.00 39 1008.1
20260505095732 79 86 5.0 7.0 0.00 0.00 0.00 39 1008.1
20260505095236 81 114 5.0 7.0 0.00 0.00 0.00 37 1008.1
20260505094740 82 139 4.0 7.0 0.00 0.00 0.00 37 1008.0
20260505094244 81 132 5.0 7.0 0.00 0.00 0.00 38 1008.1
20260505093748 83 74 4.0 6.0 0.00 0.00 0.00 36 1008.2
20260505093252 82 78 3.0 5.0 0.00 0.00 0.00 40 1008.3
20260505092756 80 110 4.0 6.0 0.00 0.00 0.00 40 1008.3
20260505092300 80 99 5.0 6.0 0.00 0.00 0.00 40 1008.4
20260505091805 81 111 4.0 6.0 0.00 0.00 0.00 40 1008.4
20260505091309 81 107 3.0 4.0 0.00 0.00 0.00 41 1008.4
20260505090813 80 118 4.0 7.0 0.00 0.00 0.00 39 1008.5
20260505090317 82 156 3.0 5.0 0.00 0.00 0.00 40 1008.5
20260505085821 81 111 4.0 6.0 0.00 0.00 0.00 41 1008.6
20260505084829 81 129 3.0 4.0 0.00 0.00 0.00 41 1008.6
20260505084334 80 111 3.0 6.0 0.00 0.00 0.00 41 1008.6
20260505083838 79 94 3.0 8.0 0.00 0.00 0.00 42 1008.6
20260505083342 78 117 4.0 6.0 0.00 0.00 0.00 43 1008.6
20260505082847 78 84 4.0 6.0 0.00 0.00 0.00 43 1008.7
20260505082351 77 129 3.0 5.0 0.00 0.00 0.00 44 1008.7
20260505081856 75 122 5.0 7.0 0.00 0.00 0.00 43 1008.8
20260505081401 75 102 4.0 7.0 0.00 0.00 0.00 44 1008.9
20260505080905 74 106 5.0 6.0 0.00 0.00 0.00 44 1008.9
20260505080410 73 105 4.0 5.0 0.00 0.00 0.00 46 1008.9
20260505075915 73 96 4.0 7.0 0.00 0.00 0.00 45 1008.9
20260505075419 74 111 4.0 5.0 0.00 0.00 0.00 45 1008.9
20260505074924 75 132 5.0 7.0 0.00 0.00 0.00 45 1009.0
20260505074429 77 148 3.0 6.0 0.00 0.00 0.00 44 1009.1
20260505073933 76 128 3.0 5.0 0.00 0.00 0.00 46 1009.1
20260505073438 75 96 5.0 7.0 0.00 0.00 0.00 45 1009.1
20260505072942 75 117 4.0 7.0 0.00 0.00 0.00 45 1009.1
20260505072447 74 118 4.0 6.0 0.00 0.00 0.00 47 1009.1
20260505071952 73 113 4.0 7.0 0.00 0.00 0.00 46 1009.2
20260505071457 74 122 4.0 7.0 0.00 0.00 0.00 47 1009.2
20260505071002 75 101 4.0 5.0 0.00 0.00 0.00 46 1009.2
20260505070506 75 140 3.0 5.0 0.00 0.00 0.00 46 1009.3
20260505070011 74 156 3.0 5.0 0.00 0.00 0.00 47 1009.3
20260505065515 74 136 2.0 4.0 0.00 0.00 0.00 47 1009.3
20260505064525 70 82 2.0 3.0 0.00 0.00 0.00 50 1009.4
20260505064031 67 47 2.0 3.0 0.00 0.00 0.00 51 1009.4
20260505063536 66 57 2.0 3.0 0.00 0.00 0.00 52 1009.5
20260505063041 66 357 1.0 2.0 0.00 0.00 0.00 53 1009.5
20260505062547 65 256 0.0 2.0 0.00 0.00 0.00 55 1009.5
20260505061557 63 71 2.0 3.0 0.00 0.00 0.00 55 1009.5
20260505061103 63 99 2.0 3.0 0.00 0.00 0.00 56 1009.6
20260505060608 62 111 2.0 2.0 0.00 0.00 0.00 56 1009.7
20260505060114 61 128 1.0 2.0 0.00 0.00 0.00 57 1009.7
20260505055619 61 195 1.0 2.0 0.00 0.00 0.00 57 1009.7
20260505055125 60 324 1.0 2.0 0.00 0.00 0.00 57 1009.7
20260505054136 59 329 4.0 6.0 0.00 0.00 0.00 59 1009.6
20260505053642 59 336 6.0 7.0 0.00 0.00 0.00 58 1009.5
20260505053147 59 333 6.0 7.0 0.00 0.00 0.00 62 1009.4
20260505052653 60 324 5.0 6.0 0.00 0.00 0.00 59 1009.5
20260505052158 60 315 4.0 5.0 0.00 0.00 0.00 58 1009.5
20260505051704 60 315 3.0 4.0 0.00 0.00 0.00 55 1009.6
20260505051209 61 315 2.0 3.0 0.00 0.00 0.00 55 1009.6
20260505050715 61 318 1.0 2.0 0.00 0.00 0.00 53 1009.6
20260505050220 61 251 0.0 1.0 0.00 0.00 0.00 52 1009.7
20260505040822 57 20 2.0 3.0 0.00 0.00 0.00 55 1009.6
20260505040328 57 85 2.0 2.0 0.00 0.00 0.00 55 1009.6
20260505035339 57 147 0.0 1.0 0.00 0.00 0.00 55 1009.6
20260505034845 57 122 1.0 2.0 0.00 0.00 0.00 55 1009.6
20260505034351 57 76 1.0 1.0 0.00 0.00 0.00 55 1009.5
20260505033856 57 187 1.0 2.0 0.00 0.00 0.00 55 1009.6
20260505033402 57 225 0.0 1.0 0.00 0.00 0.00 54 1009.6
20260505032908 58 222 0.0 2.0 0.00 0.00 0.00 53 1009.7
20260505032413 58 195 1.0 2.0 0.00 0.00 0.00 53 1009.7
20260505031919 59 18 1.0 3.0 0.00 0.00 0.00 53 1009.6
20260505031424 59 349 2.0 3.0 0.00 0.00 0.00 53 1009.6
20260505030930 59 351 2.0 3.0 0.00 0.00 0.00 53 1009.5
20260505030435 59 0 2.0 3.0 0.00 0.00 0.00 53 1009.6
20260505025941 59 345 2.0 3.0 0.00 0.00 0.00 53 1009.6
20260505025447 59 2 2.0 4.0 0.00 0.00 0.00 53 1009.6
20260505024952 59 333 4.0 7.0 0.00 0.00 0.00 54 1009.6
20260505024458 58 336 5.0 7.0 0.00 0.00 0.00 55 1009.6
20260505024004 58 336 4.0 5.0 0.00 0.00 0.00 56 1009.7
20260505023509 58 344 4.0 6.0 0.00 0.00 0.00 55 1009.7
20260505023015 57 333 5.0 6.0 0.00 0.00 0.00 55 1009.8
20260505022520 58 327 5.0 6.0 0.00 0.00 0.00 53 1009.8
20260505022026 58 341 5.0 6.0 0.00 0.00 0.00 53 1009.9
20260505021532 59 336 5.0 5.0 0.00 0.00 0.00 52 1009.9
20260505021038 60 331 4.0 5.0 0.00 0.00 0.00 52 1009.9
20260505020543 60 334 3.0 5.0 0.00 0.00 0.00 52 1010.0
20260505020048 60 338 3.0 3.0 0.00 0.00 0.00 51 1010.0
20260505015553 61 334 3.0 4.0 0.00 0.00 0.00 51 1010.0
20260505015059 61 344 3.0 5.0 0.00 0.00 0.00 50 1010.1
20260505014604 61 321 2.0 3.0 0.00 0.00 0.00 50 1010.1
20260505014110 61 324 3.0 4.0 0.00 0.00 0.00 50 1010.0
20260505013615 61 327 2.0 3.0 0.00 0.00 0.00 50 1010.0
20260505013121 61 343 2.0 3.0 0.00 0.00 0.00 50 1010.0
20260505012626 61 323 2.0 2.0 0.00 0.00 0.00 49 1010.1
20260505011637 61 350 2.0 3.0 0.00 0.00 0.00 49 1010.1
20260505011142 62 334 2.0 4.0 0.00 0.00 0.00 49 1010.2
20260505010648 62 351 2.0 2.0 0.00 0.00 0.00 49 1010.4
20260505010153 62 10 3.0 4.0 0.00 0.00 0.00 48 1010.4
20260505005659 62 348 2.0 3.0 0.00 0.00 0.00 48 1010.5
20260505005204 62 344 2.0 3.0 0.00 0.00 0.00 48 1010.6
20260505004709 62 354 2.0 3.0 0.00 0.00 0.00 48 1010.7
20260505003720 62 14 2.0 4.0 0.00 0.00 0.00 48 1010.9
20260505003226 62 27 2.0 3.0 0.00 0.00 0.00 48 1010.9
20260505002731 62 9 2.0 3.0 0.00 0.00 0.00 49 1011.0
20260505002236 62 14 2.0 3.0 0.00 0.00 0.00 49 1011.1
20260505001742 62 45 3.0 5.0 0.00 0.00 0.00 48 1011.1
20260505001247 62 69 5.0 6.0 0.00 0.00 0.00 48 1011.1
20260505000753 62 51 4.0 5.0 0.00 0.00 0.00 49 1011.1
20260505000258 62 55 3.0 4.0 0.00 0.00 0.00 49 1011.1
20260504235803 62 77 3.0 4.0 0.00 0.00 0.00 49 1011.2
20260504234814 62 135 3.0 4.0 0.00 0.00 0.00 50 1011.4
20260504234320 62 129 3.0 5.0 0.00 0.00 0.00 52 1011.4
20260504233825 62 123 3.0 4.0 0.00 0.00 0.00 51 1011.5
20260504233331 61 186 2.0 2.0 0.00 0.00 0.00 49 1011.6
20260504232836 61 222 1.0 2.0 0.00 0.00 0.00 49 1011.7
20260504232341 61 207 3.0 6.0 0.00 0.00 0.00 49 1011.7
20260504231847 62 183 3.0 4.0 0.00 0.00 0.00 50 1011.9
20260504231352 61 186 2.0 5.0 0.00 0.00 0.00 51 1012.0
20260504230858 61 192 4.0 5.0 0.00 0.00 0.00 51 1012.1
20260504230403 61 195 5.0 7.0 0.00 0.00 0.00 52 1012.2
20260504225909 61 183 6.0 7.0 0.00 0.00 0.00 53 1012.2
20260504225414 60 183 8.0 9.0 0.00 0.00 0.00 54 1012.3
20260504224920 61 186 6.0 8.0 0.00 0.00 0.00 50 1012.3
20260504224425 61 189 4.0 5.0 0.00 0.00 0.00 47 1012.2
20260504223930 62 177 2.0 4.0 0.00 0.00 0.00 46 1012.1
20260504223436 63 183 2.0 3.0 0.00 0.00 0.00 45 1012.0
20260504222941 63 140 1.0 4.0 0.00 0.00 0.00 45 1011.9
20260504222447 63 240 1.0 3.0 0.00 0.00 0.00 44 1011.8
20260504221952 63 94 1.0 4.0 0.00 0.00 0.00 44 1011.7
20260504221457 64 55 3.0 4.0 0.00 0.00 0.00 44 1011.7
20260504221003 64 43 2.0 5.0 0.00 0.00 0.00 44 1011.7
20260504220508 64 23 2.0 4.0 0.00 0.00 0.00 44 1011.7
20260504220013 64 33 2.0 3.0 0.00 0.00 0.00 44 1011.7
20260504215519 64 340 2.0 8.0 0.00 0.00 0.00 44 1011.7
20260504215024 64 287 2.0 5.0 0.00 0.00 0.00 44 1011.7
20260504214530 63 349 2.0 3.0 0.00 0.00 0.00 44 1011.8
20260504214035 63 34 2.0 3.0 0.00 0.00 0.00 44 1011.8
20260504213540 63 21 2.0 5.0 0.00 0.00 0.00 44 1011.9
20260504213046 63 355 2.0 4.0 0.00 0.00 0.00 44 1011.9
20260504212057 63 356 2.0 4.0 0.00 0.00 0.00 43 1012.0
20260504211602 63 343 2.0 3.0 0.00 0.00 0.00 44 1012.0
20260504211107 63 360 2.0 3.0 0.00 0.00 0.00 43 1012.1
20260504210613 63 354 2.0 3.0 0.00 0.00 0.00 43 1012.2
20260504210118 63 356 2.0 3.0 0.00 0.00 0.00 44 1012.2
20260504205623 63 3 2.0 3.0 0.00 0.00 0.00 43 1012.3
20260504205129 63 346 2.0 3.0 0.00 0.00 0.00 43 1012.4
20260504204634 63 335 2.0 3.0 0.00 0.00 0.00 43 1012.4
20260504204139 63 340 2.0 3.0 0.00 0.00 0.00 43 1012.4
20260504203645 64 345 2.0 3.0 0.00 0.00 0.00 43 1012.4
20260504202655 64 344 2.0 3.0 0.00 0.00 0.00 42 1012.5
20260504202201 64 339 2.0 3.0 0.00 0.00 0.00 41 1012.5
20260504201706 64 1 1.0 2.0 0.00 0.00 0.00 41 1012.4
20260504201211 65 352 2.0 4.0 0.00 0.00 0.00 41 1012.4
20260504200717 65 13 1.0 3.0 0.00 0.00 0.00 40 1012.4
20260504200222 65 348 2.0 4.0 0.00 0.00 0.00 40 1012.4
20260504195727 65 347 2.0 3.0 0.00 0.00 0.00 40 1012.3
20260504195232 66 350 2.0 4.0 0.00 0.00 0.00 39 1012.3
20260504194737 66 339 3.0 4.0 0.00 0.00 0.00 38 1012.3
20260504193748 67 9 3.0 4.0 0.00 0.00 0.00 37 1012.1
20260504193253 67 12 2.0 3.0 0.00 0.00 0.00 37 1012.2
20260504192758 67 37 2.0 3.0 0.00 0.00 0.00 37 1012.2
20260504191808 68 33 2.0 3.0 0.00 0.00 0.00 36 1012.0
20260504191314 68 51 3.0 5.0 0.00 0.00 0.00 36 1012.0
20260504190819 68 71 4.0 5.0 0.00 0.00 0.00 36 1011.9
20260504190324 68 54 3.0 5.0 0.00 0.00 0.00 36 1012.0
20260504185829 68 49 3.0 3.0 0.00 0.00 0.00 36 1012.0
20260504185334 68 41 3.0 4.0 0.00 0.00 0.00 36 1012.0
20260504184839 69 54 3.0 5.0 0.00 0.00 0.00 36 1011.9
20260504184344 69 55 3.0 4.0 0.00 0.00 0.00 35 1011.9
20260504183354 69 58 4.0 5.0 0.00 0.00 0.00 35 1011.8
20260504182859 69 57 3.0 4.0 0.00 0.00 0.00 35 1011.8
20260504182404 69 71 4.0 5.0 0.00 0.00 0.00 34 1011.8
20260504181909 69 62 3.0 4.0 0.00 0.00 0.00 34 1011.9
20260504181414 70 94 3.0 4.0 0.00 0.00 0.00 34 1011.8
20260504180424 70 93 3.0 4.0 0.00 0.00 0.00 34 1011.8
20260504175929 70 93 3.0 4.0 0.00 0.00 0.00 33 1011.9
20260504175434 71 93 3.0 4.0 0.00 0.00 0.00 34 1011.8
20260504174939 71 105 3.0 4.0 0.00 0.00 0.00 33 1011.8
20260504173949 71 97 3.0 3.0 0.00 0.00 0.00 33 1011.9
20260504173454 71 87 2.0 3.0 0.00 0.00 0.00 33 1011.8
20260504172959 71 102 2.0 3.0 0.00 0.00 0.00 33 1011.9
20260504172504 71 113 2.0 2.0 0.00 0.00 0.00 34 1011.8
20260504172009 71 159 2.0 2.0 0.00 0.00 0.00 34 1011.9
20260504171514 72 138 2.0 3.0 0.00 0.00 0.00 34 1011.9
20260504171019 72 158 2.0 3.0 0.00 0.00 0.00 34 1012.0
20260504170524 72 156 2.0 3.0 0.00 0.00 0.00 34 1012.0
20260504160127 73 138 4.0 5.0 0.00 0.00 0.00 34 1012.3
20260504150717 78 129 4.0 6.0 0.00 0.00 0.00 33 1012.4
20260504150221 78 129 6.0 8.0 0.00 0.00 0.00 33 1012.5
20260504141304 79 183 3.0 4.0 0.00 0.00 0.00 32 1012.9
20260504140809 79 198 2.0 2.0 0.00 0.00 0.00 33 1012.9
20260504140313 80 219 2.0 3.0 0.00 0.00 0.00 33 1012.9
20260504130405 78 165 4.0 7.0 0.00 0.00 0.00 34 1013.5